P/2009 Q1 ( Hill ) 2022

Japanese version
Home page
Updated on January 8, 2021

---------------------------------------------------------------------

* Profile

* Orbital Elements

Epoch 2022 May 21.0 TT = JDT 2459720.5
T 2022 May 23.86836 TT                                  MPCW
q   2.7885875            (2000.0)            P               Q
n   0.07571907     Peri.  157.08923     +0.87626845     +0.48109957
a   5.5334908      Node   173.95107     -0.47170576     +0.86774808
e   0.4960527      Incl.   14.50699     -0.09822053     +0.12472557
P  13.0
From 112 observations 2009 Aug. 16-Nov. 11, mean residual 0".6.

* Magnitudes Graph

        m1 = 12.5 + 5 log d + 10.0 log r

---------------------------------------------------------------------

The orbital elements are published on M.P.E.C. 2016-D32.
The magnitudes graphs are made with Comet for Windows.

---------------------------------------------------------------------

Copyright(C) Seiichi Yoshida (comet@aerith.net). All rights reserved.